Welcome to the New NWS' Forecast!
Most changes are behind the scenes, but click here for differences you might notice.

Regional Weather Roundup (RWR)

Issued by Gray - Portland, ME (GYX)

                            
000
ASUS41 KGYX 180405
RWRGYX
WEATHER ROUNDUP FOR MAINE AND NEW HAMPSHIRE
NATIONAL WEATHER SERVICE GRAY ME
1200 AM EDT THU OCT 18 2018

MEZ002-005-006-010-012-015-018-020-021-024-026-027-029-180500-
MAINE
  
CITY           SKY/WX    TMP DP  RH WIND       PRES   REMARKS
PORTLAND       MOCLDY    40  33  76 SW7       29.86R                  
SANFORD        CLOUDY    40  31  70 W9        29.89R                  
BAR HARBOR     FAIR      38  30  73 SW5       29.78R                  
WISCASSET      FAIR      40  27  59 W3        29.84S                  
ROCKLAND       FAIR      37  28  70 W9        29.82R                  
FRYEBURG       FAIR      40  20  44 W8        29.87R                  
LEWISTONAUBURN FAIR      40  25  55 NW7       29.84R                  
AUGUSTA        FAIR      38  27  64 W5        29.82R                  
WATERVILLE     MOCLDY    35  30  82 CALM      29.78R                  
BANGOR         FAIR      38  28  67 W7        29.78R                  
GREENVILLE       N/A     32  25  75 NW8G21    29.69R                  
MILLINOCKET    FAIR      37  27  67 W7        29.72S                  
HOULTON        MOCLDY    34  31  88 W7        29.65R                  
PRESQUE ISLE   CLOUDY    33  30  88 VRB5      29.65R                  
FRENCHVILLE    MOCLDY    35  26  69 W15G23    29.60S                  
CARIBOU        CLOUDY    36  29  75 W10G17    29.61S                  
$$

NHZ002-005-008-009-011-012-014-180500-
NEW HAMPSHIRE
  
CITY           SKY/WX    TMP DP  RH WIND       PRES   REMARKS
PORTSMOUTH     LGT RAIN  41  35  80 NW18G32   29.92                   
ROCHESTER      CLOUDY    38  34  85 W8        29.90R                  
NASHUA         FAIR      42  32  67 W9        29.94R                  
MANCHESTER     MOCLDY    43  33  68 N14G22    29.93R                  
CONCORD        CLOUDY    36  32  85 NW10G22   29.94R                  
PLYMOUTH       CLOUDY    37  31  78 W9        29.90R                  
BERLIN         MOCLDY    36  26  67 W8G21     29.83R                  
WHITEFIELD     FAIR      35  27  72 NW8       29.87R                  
JAFFREY        FAIR      38  30  73 CALM      29.93R                  
KEENE          MOCLDY    39  29  67 VRB5      29.96R                  
LEBANON        FAIR      36  29  75 N5        29.94R                  
MT WASHINGTON  SNOW      12  12 100 NW74G86     N/A  VSB 1/16WCI -17  
$$

VTZ005-007-008-180500-
VERMONT
  
CITY           SKY/WX    TMP DP  RH WIND       PRES   REMARKS
ST JOHNSBURY     N/A     35  29  78 MISG      29.90R                  
MONTPELIER     CLOUDY    33  29  85 NW7       29.96R                  
BURLINGTON     CLOUDY    39  25  57 W10       29.99R                  
$$

MAZ007-012-024-CTZ003-RIZ002-NYZ038-NYZ072-180500-
SOUTHERN NEW ENGLAND AND NY
  
CITY           SKY/WX    TMP DP  RH WIND       PRES   REMARKS
BOSTON         FAIR      47  29  49 W18G26    29.94R                  
WORCESTER      FAIR      38  31  76 W15       29.96R                  
NANTUCKET      FAIR      49  31  49 W20G33    29.96R                  
PROVIDENCE     FAIR      45  30  55 W12G21    30.01R                  
HARTFORD       FAIR      45  28  51 NW14G29   30.04R                  
ALBANY         FAIR      41  29  62 NW13G23   30.06R                  
NEW YORK CITY  FAIR      50  33  52 NW23G30   30.12R                  
$$

ANZ081-ANZ082-ANZ150-NHZ014-MEZ023>029-180500-
COASTAL MARINE OBSERVATIONS
  
STATION/POSITION TIME  TEMP    WIND        PRES    WAVE
                       AIR SEA DIR/SP/G            HT/PER
                 (UTC) (F)     (DEG/KT/KT) (MB)    (FT/S)
MOUNT DESERT ROC 0400   45     290/ 24/ 26 1008.6R
MATINICUS ROCK   0300   46     310/ 29/ 32 1008.8R
ISLE OF SHOALS   0300   45     270/ 20/ 23 1011.4R
JEFFREYS LEDGE   0306      56                N/A     4/ 5
$$

.............KEY..............
   WCI - WIND CHILL
   TC  - TEMPERATURE IN CELSIUS
   VSB - VISIBILITY IN MILES
   HX  - HEAT INDEX
   FAIR- INDICATES FEW OR NO CLOUDS BELOW 12,000 FT, WITH NO 
         SIGNIFICANT WEATHER AND/OR OBSTRUCTIONS TO VISIBILITY.